{"data":{"norad_id":67976,"epoch":"2026-05-24T23:43:27.307200Z","epoch_age_seconds":90137,"freshness":"FRESH","line1":"1 67976U 26038R   26144.98851050  .00022971  00000+0  71166-3 0  9991","line2":"2 67976  97.2838 155.0387 0001161  83.4315 276.7059 15.33446171 14934","mean_motion":15.33446171,"eccentricity":0.0001161,"inclination_deg":97.2838,"raan_deg":155.0387,"arg_perigee_deg":83.4315,"mean_anomaly_deg":276.7059,"bstar":0.00071166,"rev_number":1493,"period_min":93.906132946352,"perigee_km":464.74513954446,"apogee_km":466.33424127197,"semimajor_km":6843.6766904082,"source":"CELESTRAK","updated_at":"2026-05-25T13:38:21.776142Z"}}